Weather History for Washington, PA

Change the Weather History Date:

Friday, August 24, 2012

  Actual Average Record
Temperature  
Mean Temperature 68 °F -  
Max Temperature 84 °F 78 °F 91 °F (2007)
Min Temperature 51 °F 57 °F 44 °F (1997)
Cooling Degree Days 2    
Growing Degree Days 18 (Base 50)    
Moisture  
Dew Point 58 °F    
Average Humidity 74    
Maximum Humidity 100    
Minimum Humidity 37    
Precipitation  
Precipitation 0.00 in - - ()
Sea Level Pressure  
Sea Level Pressure 30.17 in    
Wind  
Wind Speed 1 mph (ESE)    
Max Wind Speed 8 mph    
Max Gust Speed -    
Visibility 7 miles    
Events      
Averages and records for this station are not official NWS values.
T = Trace of Precipitation, MM = Missing Value Source: NWS Daily Summary

Daily Weather History Graph

Daily Weather History Graph

Search for Another Location

Airport:

Trip Planner

Search our weather history database for the weather conditions in past years. The results will help you decide how hot, cold, wet, or windy it might be!

Date:

Astronomy

Aug. 24, 2012 Rise Set
Actual Time 6:41 AM EDT 8:04 PM EDT
Civil Twilight 6:13 AM EDT 8:32 PM EDT
Nautical Twilight 5:39 AM EDT 9:06 PM EDT
Astronomical Twilight 5:03 AM EDT 9:42 PM EDT
Moon 2:33 PM EDT (8/24) No Moon Set
Length of Visible Light 14h 19m
Length of Day
13h 22m
Waxing Crescent, 51% of the Moon is Illuminated
Aug 24
Waxing Crescent
Aug 31
Full
Sep 8
Last Quarter
Sep 15
New
Sep 22
First Quarter

Hourly Weather History & Observations

Time (EDT) Temp. Heat Index Dew Point Humidity Pressure Visibility Wind Dir Wind Speed Gust Speed Precip Events Conditions
12:15 AM 57.2 °F - 55.4 °F 94% 30.17 in 3.0 mi Calm Calm - N/A   Clear
12:35 AM 57.2 °F - 57.2 °F 100% 30.17 in 3.0 mi Calm Calm - N/A   Clear
12:55 AM 55.4 °F - 55.4 °F 100% 30.17 in 4.0 mi Calm Calm - N/A   Clear
1:15 AM 55.4 °F - 55.4 °F 100% 30.17 in 1.5 mi Calm Calm - N/A   Clear
1:35 AM 57.2 °F - 57.2 °F 100% 30.17 in 3.0 mi Calm Calm - N/A   Clear
1:55 AM 55.4 °F - 53.6 °F 94% 30.17 in 0.2 mi Calm Calm - N/A   Overcast
2:15 AM 55.4 °F - 53.6 °F 94% 30.17 in 0.2 mi Calm Calm - N/A   Overcast
2:35 AM 55.4 °F - 53.6 °F 94% 30.17 in 0.8 mi Calm Calm - N/A   Mostly Cloudy
2:55 AM 55.4 °F - 55.4 °F 100% 30.17 in 1.8 mi Calm Calm - N/A   Clear
3:15 AM 53.6 °F - 53.6 °F 100% 30.17 in 0.5 mi Calm Calm - N/A   Unknown
3:35 AM 53.6 °F - 53.6 °F 100% 30.17 in 1.0 mi Calm Calm - N/A   Mostly Cloudy
3:55 AM 53.6 °F - 51.8 °F 94% 30.17 in 1.0 mi Calm Calm - N/A   Clear
4:15 AM 53.6 °F - 53.6 °F 100% 30.16 in 0.5 mi Calm Calm - N/A   Unknown
4:35 AM 55.4 °F - 55.4 °F 100% 30.17 in 1.0 mi Calm Calm - N/A   Clear
4:55 AM 51.8 °F - 51.8 °F 100% 30.16 in 2.5 mi Calm Calm - N/A   Clear
5:15 AM 53.6 °F - 51.8 °F 94% 30.17 in 0.2 mi Calm Calm - N/A   Overcast
5:35 AM 53.6 °F - 51.8 °F 94% 30.17 in 0.5 mi Calm Calm - N/A   Mostly Cloudy
5:55 AM 53.6 °F - 51.8 °F 94% 30.17 in 0.2 mi Calm Calm - N/A   Overcast
6:15 AM 51.8 °F - 51.8 °F 100% 30.17 in 0.5 mi Calm Calm - N/A   Mostly Cloudy
6:35 AM 53.6 °F - 53.6 °F 100% 30.18 in 0.8 mi Calm Calm - N/A   Mostly Cloudy
6:55 AM 53.6 °F - 51.8 °F 94% 30.19 in 0.2 mi Calm Calm - N/A   Mostly Cloudy
7:15 AM 53.6 °F - 51.8 °F 94% 30.20 in 0.5 mi Calm Calm - N/A   Mostly Cloudy
7:35 AM 53.6 °F - 53.6 °F 100% 30.20 in 2.5 mi Calm Calm - N/A   Clear
7:55 AM 57.2 °F - 57.2 °F 100% 30.20 in 1.5 mi Calm Calm - N/A   Clear
8:15 AM 59.0 °F - 59.0 °F 100% 30.20 in 2.5 mi Calm Calm - N/A   Clear
8:35 AM 60.8 °F - 60.8 °F 100% 30.21 in 7.0 mi Calm Calm - N/A   Clear
8:55 AM 62.6 °F - 60.8 °F 94% 30.21 in 10.0 mi Calm Calm - N/A   Clear
9:15 AM 66.2 °F - 60.8 °F 83% 30.21 in 10.0 mi Calm Calm - N/A   Clear
9:35 AM 69.8 °F - 62.6 °F 78% 30.21 in 10.0 mi Calm Calm - N/A   Clear
9:55 AM 71.6 °F - 62.6 °F 73% 30.21 in 10.0 mi Calm Calm - N/A   Clear
10:15 AM 73.4 °F - 62.6 °F 69% 30.21 in 10.0 mi Calm Calm - N/A   Clear
10:35 AM 75.2 °F - 62.6 °F 65% 30.22 in 10.0 mi ESE 3.5 mph - N/A   Clear
10:55 AM 75.2 °F - 62.6 °F 65% 30.22 in 10.0 mi Calm Calm - N/A   Clear
11:15 AM 77.0 °F - 62.6 °F 61% 30.21 in 10.0 mi ESE 4.6 mph - N/A   Clear
11:35 AM 78.8 °F - 62.6 °F 57% 30.21 in 10.0 mi Calm Calm - N/A   Clear
11:55 AM 78.8 °F - 62.6 °F 57% 30.21 in 10.0 mi SSE 3.5 mph - N/A   Clear
12:15 PM 78.8 °F - 62.6 °F 57% 30.20 in 10.0 mi Calm Calm - N/A   Clear
12:35 PM 80.6 °F 81.8 °F 62.6 °F 54% 30.20 in 10.0 mi ENE 4.6 mph - N/A   Clear
12:55 PM 82.4 °F 82.0 °F 57.2 °F 42% 30.19 in 10.0 mi NE 3.5 mph - N/A   Scattered Clouds
1:15 PM 82.4 °F 82.0 °F 57.2 °F 42% 30.18 in 10.0 mi Calm Calm - N/A   Partly Cloudy
1:35 PM 82.4 °F 82.5 °F 59.0 °F 45% 30.18 in 10.0 mi NNW 4.6 mph - N/A   Clear
1:55 PM 82.4 °F 82.0 °F 57.2 °F 42% 30.18 in 10.0 mi Calm Calm - N/A   Clear
2:15 PM 84.2 °F 83.5 °F 57.2 °F 40% 30.18 in 10.0 mi NNE 4.6 mph - N/A   Clear
2:35 PM 82.4 °F 82.0 °F 57.2 °F 42% 30.17 in 10.0 mi Calm Calm - N/A   Partly Cloudy
2:55 PM 84.2 °F 83.5 °F 57.2 °F 40% 30.16 in 10.0 mi ESE 6.9 mph - N/A   Clear
3:15 PM 84.2 °F 83.5 °F 57.2 °F 40% 30.16 in 10.0 mi Calm Calm - N/A   Clear
3:35 PM 84.2 °F 83.5 °F 57.2 °F 40% 30.15 in 10.0 mi East 8.1 mph - N/A   Clear
3:55 PM 84.2 °F 83.0 °F 55.4 °F 37% 30.14 in 10.0 mi Calm Calm - N/A   Clear
4:15 PM 84.2 °F 83.5 °F 57.2 °F 40% 30.14 in 10.0 mi SSW 3.5 mph - N/A   Clear
4:35 PM 84.2 °F 83.5 °F 57.2 °F 40% 30.14 in 10.0 mi NE 3.5 mph - N/A   Clear
4:55 PM 84.2 °F 83.5 °F 57.2 °F 40% 30.14 in 10.0 mi SE 5.8 mph - N/A   Clear
5:15 PM 84.2 °F 83.0 °F 55.4 °F 37% 30.14 in 10.0 mi Calm Calm - N/A   Clear
5:35 PM 84.2 °F 83.0 °F 55.4 °F 37% 30.14 in 10.0 mi Calm Calm - N/A   Clear
5:55 PM 84.2 °F 83.0 °F 55.4 °F 37% 30.14 in 10.0 mi East 3.5 mph - N/A   Clear
6:15 PM 84.2 °F 83.5 °F 57.2 °F 40% 30.13 in 10.0 mi SSE 3.5 mph - N/A   Clear
6:35 PM 82.4 °F 82.0 °F 57.2 °F 42% 30.13 in 10.0 mi ESE 3.5 mph - N/A   Clear
6:55 PM 80.6 °F 82.7 °F 66.2 °F 61% 30.13 in 10.0 mi Calm Calm - N/A   Clear
7:15 PM 77.0 °F - 62.6 °F 61% 30.13 in 10.0 mi Calm Calm - N/A   Clear
7:35 PM 73.4 °F - 62.6 °F 69% 30.14 in 10.0 mi Calm Calm - N/A   Clear
7:55 PM 71.6 °F - 62.6 °F 73% 30.14 in 10.0 mi Calm Calm - N/A   Clear
8:15 PM 69.8 °F - 62.6 °F 78% 30.14 in 10.0 mi Calm Calm - N/A   Clear
8:35 PM 66.2 °F - 62.6 °F 88% 30.14 in 10.0 mi Calm Calm - N/A   Clear
8:55 PM 66.2 °F - 60.8 °F 83% 30.15 in 10.0 mi Calm Calm - N/A   Clear
9:15 PM 64.4 °F - 60.8 °F 88% 30.15 in 10.0 mi Calm Calm - N/A   Clear
9:35 PM 64.4 °F - 60.8 °F 88% 30.16 in 10.0 mi Calm Calm - N/A   Clear
9:55 PM 64.4 °F - 60.8 °F 88% 30.16 in 10.0 mi Calm Calm - N/A   Clear
10:15 PM 64.4 °F - 60.8 °F 88% 30.17 in 10.0 mi SE 4.6 mph - N/A   Clear
10:35 PM 69.8 °F - 60.8 °F 73% 30.17 in 10.0 mi SE 4.6 mph - N/A   Clear
10:55 PM 66.2 °F - 60.8 °F 83% 30.17 in 10.0 mi Calm Calm - N/A   Clear
11:15 PM 64.4 °F - 59.0 °F 83% 30.18 in 10.0 mi Calm Calm - N/A   Clear
11:35 PM 64.4 °F - 60.8 °F 88% 30.18 in 10.0 mi Calm Calm - N/A   Clear
11:55 PM 62.6 °F - 60.8 °F 94% 30.18 in 10.0 mi Calm Calm - N/A   Clear